RH
26 27 28 28 28 27 28 27 27 27 32 40 46 45 43 43 40 37 36 35 33 32 32 32 33 34 37 40 43 46 50 54 55 53 51 48 43 40 38 38 37 36 36 34 33 32 32 32 33 32 32 31 30 30 29 28 28 28 28 29 30 30 32 30 26 26 31 31 26 25 28 29 28 25 23 24 26 25 23 23 22 19 23 27 27 27 22 22
25 26 28 28 29 29 28 29 30 29 28 32 41 49 53 54 52 47 44 41 38 34 33 32 32 32 32 33 34 35 37 41 42 41 41 38 36 35 32 32 32 32 32 32 32 31 31 32 32 31 31 30 30 28 28 28 27 26 26 27 28 29 29 27 26 27 32 33 27 25 29 32 32 29 25 25 28 28 28 26 22 22 22 24 28 27 24 26
26 25 26 28 29 30 30 30 31 32 31 30 33 43 54 62 65 62 57 52 48 43 37 34 33 32 32 32 31 32 33 33 34 34 33 31 31 31 30 30 29 29 29 30 31 31 31 31 30 30 30 29 28 27 27 27 26 26 26 26 26 26 26 26 28 28 29 31 29 27 28 32 36 31 29 31 32 28 29 28 24 26 26 28 33 31 28 28
28 24 25 27 29 31 32 31 31 33 35 34 32 36 47 60 72 76 74 69 62 55 48 41 38 35 34 33 32 32 32 32 31 31 30 30 29 29 29 29 28 29 29 30 31 31 32 31 31 30 29 29 28 28 28 28 27 26 26 26 26 25 24 25 27 27 28 29 29 27 27 32 35 33 36 38 34 29 28 28 28 28 27 27 28 29 30 29
27 25 24 25 28 31 33 32 32 33 36 37 35 35 40 51 67 80 86 86 80 72 63 53 45 42 40 37 35 33 32 31 30 30 30 29 28 28 28 29 30 31 31 32 32 33 33 32 32 31 31 30 30 30 29 29 28 28 28 27 26 25 25 25 25 26 27 28 28 27 27 31 33 37 42 40 37 34 30 31 32 29 27 26 23 25 27 28
24 24 23 24 27 30 33 34 34 35 36 38 38 38 39 45 57 72 84 92 94 88 79 68 57 51 48 44 40 37 34 31 31 31 29 28 28 28 28 31 32 33 33 34 34 34 34 34 34 34 34 33 32 31 30 30 29 28 28 27 26 25 25 25 24 25 26 26 26 27 28 30 33 38 41 41 43 43 36 34 36 34 31 27 24 23 23 22
20 21 22 23 26 29 32 34 36 38 38 38 40 41 40 43 50 62 74 85 94 95 91 83 70 61 56 52 45 41 37 33 33 33 30 29 30 30 31 33 33 34 35 35 35 35 35 36 37 36 35 33 32 31 30 30 29 28 27 26 26 25 25 24 23 24 24 24 25 26 27 29 32 37 39 40 49 53 42 36 40 40 36 30 27 23 25 28
16 18 20 21 25 30 31 33 36 41 45 41 40 42 43 45 49 57 67 76 87 94 96 93 83 72 64 58 53 47 40 36 37 35 32 31 32 34 35 35 36 37 37 37 37 37 39 39 39 37 35 34 32 31 31 30 28 27 26 26 25 24 24 23 23 24 23 24 24 24 26 27 31 37 38 40 56 60 44 39 44 43 38 32 30 27 29 35
13 15 19 21 24 30 32 33 35 42 53 52 44 42 44 46 51 59 67 75 84 92 99 99 92 83 73 66 60 53 46 42 41 37 34 34 36 38 39 40 40 40 39 40 40 41 42 41 40 38 37 35 33 32 30 29 28 26 25 24 23 23 22 22 22 22 23 23 23 24 25 26 30 37 40 45 56 55 45 44 44 44 42 32 30 33 32 34
10 13 17 21 25 31 33 35 38 43 55 63 56 46 44 45 49 58 69 79 88 95 101 103 98 90 81 72 64 57 52 48 43 40 38 38 40 42 43 44 43 43 43 44 46 47 46 43 42 39 37 35 31 30 29 28 26 24 24 22 21 21 20 21 21 21 22 22 23 25 24 26 32 37 46 55 53 46 45 49 47 45 43 34 28 31 32 32
8 12 16 21 26 32 35 36 42 50 58 68 68 57 47 45 47 54 65 78 90 98 104 106 101 92 83 74 67 60 56 52 45 43 43 43 46 47 46 47 46 47 48 50 52 51 48 45 43 41 37 33 30 29 28 26 24 23 22 21 20 19 20 20 21 21 21 23 23 24 27 30 35 40 54 60 49 42 45 53 57 50 46 41 31 29 32 32
8 12 17 23 28 34 37 38 46 58 67 73 75 67 54 47 47 52 61 74 90 99 102 101 94 86 79 72 64 59 56 52 48 48 50 51 51 51 50 50 50 52 54 56 56 52 48 45 43 40 35 34 33 30 28 27 26 24 21 22 22 21 23 23 22 20 22 28 25 26 37 41 44 50 60 60 47 41 51 65 66 56 50 46 37 32 35 38
8 13 19 26 31 37 40 42 51 65 77 82 81 75 63 53 49 53 59 69 84 94 96 93 86 78 73 67 61 58 56 53 55 58 57 57 55 53 54 54 55 57 59 59 56 51 48 46 43 40 37 37 34 31 31 30 27 25 24 25 26 30 35 33 26 25 32 35 26 35 54 54 51 57 63 60 46 37 56 83 79 60 52 47 42 36 38 47
9 15 23 30 36 41 43 48 59 72 83 91 91 83 72 62 56 56 59 65 77 85 89 87 81 75 70 66 62 59 59 60 64 65 62 59 57 56 58 59 60 61 61 59 54 50 48 47 46 44 42 40 35 32 34 32 29 27 27 31 37 47 53 45 33 44 59 46 38 57 71 64 52 50 59 56 40 35 59 88 81 57 47 41 41 39 36 46
11 18 28 37 41 46 49 53 66 79 89 96 98 92 81 71 63 61 62 65 72 78 82 81 78 74 69 68 67 65 66 69 69 67 64 60 58 58 60 62 63 63 61 57 54 50 48 48 47 47 45 43 38 36 35 33 30 29 36 47 54 63 68 55 46 76 90 59 58 80 74 72 65 43 42 46 39 41 61 80 70 50 41 35 38 39 33 51
13 23 34 44 50 54 56 60 71 84 94 102 104 99 90 80 72 68 67 68 71 75 77 77 75 73 71 74 75 72 72 72 69 67 63 60 59 61 64 65 64 63 61 58 55 51 49 48 46 44 43 42 39 37 35 33 31 32 50 68 70 75 82 70 60 92 106 69 70 93 76 74 77 49 29 33 43 52 67 76 64 47 40 37 36 34 37 60
16 29 41 53 63 68 69 70 77 88 98 104 107 104 97 89 82 75 72 73 74 75 76 76 75 74 76 80 78 75 75 74 70 67 63 60 63 64 67 68 67 66 63 61 57 52 49 45 42 40 38 38 36 37 34 33 33 31 52 78 84 87 95 92 72 77 98 83 75 88 85 81 80 62 38 28 38 53 68 76 65 48 41 38 34 31 37 47
21 35 49 62 74 81 81 80 83 92 102 104 106 107 102 96 91 83 79 78 78 79 78 75 75 77 81 82 81 79 77 75 71 68 65 65 67 69 71 71 71 70 66 64 59 53 48 41 38 35 34 35 34 35 33 33 33 31 46 72 93 99 101 105 81 59 79 95 90 84 85 90 87 74 52 34 37 50 59 64 62 51 39 35 34 32 28 32
27 43 60 73 84 92 91 88 89 96 104 104 104 108 104 100 98 91 89 89 87 84 77 77 81 84 88 89 87 83 80 78 74 72 71 71 72 72 74 75 74 72 68 65 57 50 44 37 34 31 31 34 33 33 33 33 35 36 40 55 83 101 103 105 88 65 66 78 90 89 80 84 87 78 57 38 38 48 53 52 51 49 39 31 32 30 20 34
34 54 73 84 94 102 101 96 94 99 105 104 103 106 104 103 102 98 98 98 96 87 81 88 91 88 94 97 89 85 83 82 78 78 77 76 77 77 78 78 74 71 67 60 52 44 38 32 31 31 31 31 31 32 32 35 39 39 39 47 66 80 87 93 85 72 63 58 70 82 80 77 78 73 58 41 34 36 43 43 40 37 33 26 25 25 17 35
44 68 89 96 100 105 105 103 100 101 105 103 101 103 103 104 104 102 102 102 99 92 90 97 95 91 100 98 90 90 89 86 85 84 84 83 83 82 82 78 71 67 61 53 47 39 35 34 33 31 31 31 31 30 32 41 44 40 43 49 53 54 62 71 68 55 45 47 55 59 63 60 59 59 52 44 36 29 28 33 36 31 28 25 19 22 17 24
54 83 101 102 100 103 106 107 104 103 103 101 101 102 102 104 104 103 104 104 103 99 98 103 101 98 102 98 94 96 93 92 93 91 91 90 86 85 83 75 66 62 56 49 44 39 41 46 44 39 34 30 30 32 39 48 44 42 49 51 47 49 55 59 63 53 34 36 39 40 48 48 47 48 44 42 40 35 24 22 36 35 29 27 21 23 21 16
67 95 105 101 100 102 106 108 106 105 103 101 101 102 102 102 102 102 102 102 103 103 103 107 108 103 102 101 99 100 99 100 100 98 96 92 88 87 82 73 66 61 56 49 44 44 54 66 68 60 49 42 45 50 56 57 51 51 59 61 59 65 72 75 79 66 46 41 40 47 57 56 54 53 51 50 46 45 33 22 31 37 31 29 27 23 24 22
80 101 102 100 100 102 107 108 105 104 103 101 101 101 101 100 100 101 101 101 102 103 103 105 107 103 101 103 103 105 105 103 101 100 98 94 92 88 80 76 71 63 57 51 47 49 65 89 90 77 74 75 79 82 79 79 78 76 80 84 87 93 94 95 95 75 54 49 53 65 66 57 58 58 55 53 46 44 40 31 28 32 31 26 28 22 21 26
90 105 101 100 100 100 105 104 102 102 101 102 101 100 100 99 101 101 100 101 101 102 102 103 104 102 102 104 106 106 104 103 103 102 100 94 89 83 79 78 72 66 62 54 52 50 59 87 92 84 97 104 101 100 96 98 102 98 99 103 103 104 96 92 97 87 68 56 57 67 62 52 51 49 46 43 38 37 34 32 26 26 27 22 24 22 20 22
97 107 101 100 100 100 102 101 101 101 101 102 100 100 101 100 102 101 100 101 100 101 101 101 101 100 102 104 104 105 104 103 100 98 98 90 83 82 80 79 75 73 69 58 57 55 51 67 77 81 100 107 101 101 100 102 107 103 103 106 99 93 87 84 86 80 69 59 52 52 47 43 42 38 37 33 29 27 25 26 23 21 21 19 20 18 19 19
103 105 100 100 101 101 100 100 101 101 101 101 100 101 101 101 101 100 100 100 100 100 100 101 101 99 101 101 102 104 101 99 97 100 104 92 81 81 80 81 82 78 73 63 60 60 56 57 59 64 84 100 101 102 103 103 104 102 99 97 86 78 76 75 69 60 55 49 45 42 38 37 36 33 32 28 25 24 22 21 19 19 17 17 19 15 18 17
106 102 101 101 100 100 100 100 101 101 101 100 100 101 101 101 101 99 100 100 99 99 99 100 100 100 100 100 102 101 99 104 104 102 102 89 80 85 88 89 87 81 77 70 64 65 64 59 53 50 64 91 104 103 103 100 96 96 92 81 70 66 66 59 52 49 47 43 40 41 40 35 32 32 31 27 24 21 20 19 16 18 16 14 17 15 16 16
104 101 102 99 98 101 101 100 100 99 99 100 101 101 101 101 99 98 100 99 98 99 99 99 99 101 100 100 102 100 102 107 99 94 101 98 91 94 95 90 85 83 79 75 71 71 70 65 60 51 53 78 98 97 92 86 82 81 74 63 58 57 55 49 47 48 46 42 40 41 40 34 29 29 28 27 26 21 21 23 16 17 21 17 16 16 16 15
103 101 101 99 100 101 100 99 99 99 99 101 102 101 100 98 97 100 100 99 100 100 100 99 98 101 101 100 101 100 103 103 95 100 110 105 98 96 94 88 85 85 84 81 80 81 77 70 69 65 60 67 74 70 67 66 67 68 63 58 54 52 52 50 50 50 46 40 39 41 37 31 27 26 28 31 30 23 22 25 20 24 35 29 22 26 25 20
102 100 99 101 101 100 100 100 100 100 101 102 102 100 97 96 98 101 101 101 102 100 101 100 98 100 101 100 101 100 101 100 98 104 106 101 100 100 97 94 91 90 89 87 88 91 87 78 78 77 68 64 60 57 59 62 65 67 64 60 55 54 55 56 55 52 46 42 40 39 33 27 26 26 27 27 29 28 29 32 27 30 43 41 34 34 35 32
101 100 100 101 100 100 101 101 100 100 101 102 100 97 96 98 101 102 101 102 100 99 101 100 98 100 101 100 102 101 100 100 100 102 101 100 102 101 100 100 97 94 91 90 93 97 94 86 82 77 72 72 69 68 68 66 68 67 63 63 62 61 60 60 62 56 46 43 40 35 30 27 30 35 31 27 35 34 27 31 34 42 57 61 56 49 52 54
100 100 100 100 100 101 101 100 100 100 101 100 96 96 98 102 103 102 101 101 99 98 101 101 99 100 100 100 101 101 101 101 102 101 100 100 100 100 101 101 100 99 97 97 97 99 100 95 88 85 89 88 79 76 74 69 69 71 70 72 72 70 67 65 64 57 47 42 39 34 31 29 30 35 34 43 58 49 41 57 70 77 85 84 79 75 80 82
100 100 101 101 100 102 100 100 101 100 101 100 96 96 101 103 102 101 102 100 96 97 101 102 101 100 100 100 100 100 101 101 101 101 102 102 103 104 105 104 105 105 105 103 100 101 103 100 96 96 99 95 87 85 84 79 78 79 79 77 76 75 73 68 64 57 47 41 38 35 36 36 35 38 40 52 71 70 69 83 94 100 99 94 97 95 90 91
100 100 100 100 100 101 101 101 101 96 97 98 96 96 101 104 104 102 100 95 92 98 103 101 101 100 100 100 100 99 100 100 100 101 103 104 106 108 108 108 107 106 108 104 100 102 103 101 100 99 96 95 97 95 90 87 85 82 80 78 78 78 74 70 63 53 44 40 36 33 39 51 62 72 65 55 68 85 87 87 94 103 103 104 106 92 78 84
101 101 101 101 101 101 101 100 98 92 90 93 95 98 105 108 104 98 98 98 100 106 106 103 103 102 100 100 100 99 100 101 100 100 101 102 103 105 106 107 106 106 109 106 102 103 104 102 102 101 98 95 96 93 88 88 86 83 83 84 83 79 72 65 56 46 41 38 35 32 37 49 65 82 79 63 70 90 96 96 98 98 99 104 92 68 71 86
102 101 101 101 99 98 97 96 95 92 90 92 96 101 107 108 100 93 96 102 106 108 106 105 107 104 102 102 101 100 100 101 99 99 100 100 100 100 101 103 103 102 104 104 104 105 104 103 102 100 100 97 93 91 89 88 88 87 90 91 87 78 68 59 50 44 40 36 36 40 48 51 52 71 85 75 70 75 83 95 97 87 89 95 80 64 83 103
101 100 99 99 97 96 96 97 98 98 99 99 102 106 108 106 101 96 94 91 93 101 106 106 104 103 104 104 102 102 102 101 100 99 101 101 100 100 100 101 101 100 102 102 102 101 98 101 103 99 101 103 97 92 91 89 90 94 97 93 84 75 64 54 47 44 40 38 39 44 56 59 53 73 95 85 73 76 85 98 99 92 93 99 93 83 93 109
100 100 100 100 100 99 101 103 103 103 104 105 107 109 105 100 100 97 90 82 79 87 94 91 85 91 103 107 105 104 102 101 101 100 101 100 98 100 99 99 98 97 99 99 98 97 96 102 108 105 105 107 101 95 95 95 92 94 95 87 78 71 61 51 49 48 45 44 45 48 57 59 54 71 93 88 84 93 99 101 100 97 99 102 99 93 93 103
101 102 103 103 102 104 104 101 99 98 99 97 96 95 92 89 91 89 83 79 76 74 76 72 68 83 103 107 102 95 93 100 105 103 102 100 100 101 99 97 96 95 99 102 101 101 102 106 109 106 105 106 105 101 99 96 93 91 89 79 71 67 60 54 49 46 46 47 54 64 66 60 56 65 78 80 80 88 93 97 101 100 98 98 96 95 99 100
102 102 102 101 102 105 103 97 94 91 85 82 79 78 77 76 76 76 73 72 72 69 68 66 63 72 86 90 91 89 90 102 110 106 104 102 101 102 101 99 99 99 102 104 104 104 104 105 104 101 102 104 105 102 98 98 97 94 85 73 69 67 61 56 46 44 56 63 71 82 73 62 65 66 69 78 82 85 90 94 100 102 98 99 100 99 101 101
102 102 102 101 103 105 103 97 90 84 77 74 72 69 67 66 63 63 62 60 61 59 59 60 58 60 65 71 80 82 82 96 106 105 104 101 100 102 103 103 103 101 101 103 103 99 97 101 103 103 104 105 105 103 102 104 100 91 80 72 75 75 65 55 44 46 65 73 82 94 77 65 79 83 81 93 100 99 101 100 100 104 101 98 101 102 100 101
101 102 102 102 104 105 104 96 85 80 76 72 70 67 65 63 61 61 59 57 56 55 55 55 53 54 56 59 64 63 66 84 101 107 106 101 101 104 102 104 107 104 103 105 102 95 94 100 103 105 105 103 103 103 100 100 97 90 84 82 86 84 69 53 44 52 67 71 86 104 87 71 82 87 87 96 99 98 103 102 97 101 105 99 97 103 102 98
101 102 102 101 103 106 107 100 87 80 77 72 71 69 67 66 65 65 65 63 63 62 62 61 59 59 58 56 57 56 56 68 84 99 106 103 102 103 100 101 104 101 100 103 102 98 100 103 101 103 103 101 102 100 95 95 99 98 94 94 95 85 68 58 55 58 65 73 93 107 98 88 77 65 76 93 95 97 105 102 93 92 100 102 99 100 101 99
103 104 103 103 104 105 106 103 94 85 80 77 75 72 69 69 68 68 68 66 66 66 65 65 64 64 63 62 63 61 59 62 69 84 102 107 103 100 99 99 100 99 98 99 100 98 99 99 100 102 101 100 102 101 97 97 101 102 98 99 98 82 74 81 79 68 67 83 102 102 99 103 86 66 81 101 99 99 106 105 99 95 96 100 101 99 100 100
107 105 104 105 105 104 103 101 97 93 88 84 81 78 76 75 73 72 70 68 67 66 65 64 63 62 63 63 63 62 63 65 64 68 83 98 102 100 101 100 99 100 99 98 97 97 97 99 101 101 100 101 102 101 102 102 101 98 93 94 89 74 78 95 91 81 85 95 103 101 98 102 93 82 93 105 101 98 103 104 100 99 101 101 101 102 102 101
106 104 104 103 101 101 102 100 99 101 101 97 92 87 83 80 76 74 71 69 67 65 63 61 59 58 57 57 58 59 61 63 64 63 67 81 95 102 102 100 99 100 100 100 99 100 101 100 100 101 101 101 101 101 104 104 103 100 94 93 88 71 73 85 80 79 93 98 97 103 102 100 99 94 94 101 103 100 101 102 91 86 94 99 96 96 98 97
105 105 105 104 103 102 101 102 104 106 105 101 95 88 84 79 75 71 68 65 62 58 56 53 50 49 48 48 50 53 56 59 63 65 62 67 84 101 104 100 100 101 99 100 101 100 101 100 100 101 101 100 101 101 102 103 105 104 96 93 90 78 78 89 84 83 97 101 99 103 102 99 101 98 90 91 99 101 100 101 91 74 74 88 94 91 89 89
105 103 101 102 106 108 106 106 109 106 99 95 89 83 78 72 68 63 59 55 51 46 45 44 43 42 41 43 46 49 54 57 59 64 68 71 82 98 106 102 101 101 99 100 101 100 101 101 100 100 100 101 102 100 101 104 103 99 93 89 86 81 87 99 98 96 102 103 99 102 102 99 99 99 93 87 92 99 100 101 95 74 63 76 86 81 74 70
102 102 101 102 107 110 108 106 104 97 89 84 78 71 65 59 55 52 47 44 43 42 43 45 45 44 45 47 48 52 56 59 63 73 83 86 89 97 104 105 103 102 100 100 101 100 100 100 100 101 101 101 101 99 102 104 101 96 91 85 79 76 84 98 101 98 101 102 100 100 100 99 100 102 101 94 88 86 86 92 98 88 69 63 61 53 49 48
103 103 102 104 108 109 104 97 90 82 74 68 62 57 53 49 46 45 43 42 43 46 52 58 61 62 64 63 61 64 67 68 76 89 97 98 99 101 103 103 102 103 102 101 101 101 102 101 100 101 101 100 101 102 103 103 102 99 94 87 79 75 79 93 101 99 99 101 100 100 100 100 103 102 101 102 98 88 75 73 90 103 85 62 56 51 43 40
104 104 103 104 105 100 91 80 71 64 58 54 51 49 47 47 46 47 49 50 51 56 65 73 78 79 81 83 83 84 88 88 92 100 103 104 104 103 102 101 100 102 102 101 101 101 101 102 101 100 101 100 101 102 102 102 101 101 102 98 89 80 77 88 99 100 101 102 101 101 101 99 99 100 99 100 104 104 90 71 76 101 99 78 74 69 52 45
Wind_Speed
76 78 81 84 86 90 93 95 95 96 96 96 94 92 90 89 87 86 85 85 84 84 84 83 83 82 81 80 80 79 79 78 78 77 77 76 76 75 74 74 74 74 74 74 74 73 73 73 73 73 73 72 71 70 69 69 68 68 68 68 69 71 74 75 71 68 70 69 61 58 61 66 68 65 63 63 65 66 63 64 62 60 59 57 58 61 61 60
76 76 79 82 84 86 90 93 93 94 95 95 95 94 92 89 87 86 85 84 84 84 84 83 83 82 81 81 80 80 79 79 78 77 77 77 76 75 75 74 74 74 74 74 74 74 74 73 73 73 72 72 72 71 71 70 70 70 70 70 71 74 75 73 69 69 71 70 64 62 64 66 68 67 64 64 66 65 65 65 63 61 59 58 61 63 62 60
77 77 77 79 82 85 87 90 92 92 92 93 94 94 93 90 88 86 84 83 83 83 82 82 82 81 81 80 80 79 78 78 77 77 77 76 75 75 75 75 75 74 74 74 73 73 73 73 73 72 72 72 71 71 71 71 70 70 70 71 73 75 74 71 71 71 71 70 67 65 65 66 69 67 63 66 69 67 66 66 65 61 58 60 63 63 63 61
78 77 77 78 80 83 85 87 90 92 91 91 92 92 92 91 89 86 84 82 81 81 80 81 81 80 80 79 79 78 78 77 76 75 76 75 74 74 74 74 74 74 73 73 72 72 72 71 71 71 71 71 71 71 70 70 70 70 70 71 74 74 71 71 72 71 71 71 70 68 66 67 69 66 65 69 71 69 67 66 67 64 62 64 65 64 63 61
77 77 77 78 79 82 84 86 88 90 91 91 90 90 91 90 89 87 85 82 80 79 79 79 79 79 78 78 78 77 77 76 73 75 75 74 74 74 74 73 73 73 72 72 71 71 71 70 70 70 70 70 70 70 69 69 70 69 70 72 73 71 71 71 71 70 72 72 71 68 67 68 68 66 69 71 71 71 68 67 69 68 66 67 66 65 64 63
76 77 77 78 79 80 83 85 87 88 90 91 89 89 89 89 88 87 86 84 81 79 78 77 77 77 77 77 77 76 76 73 72 75 74 73 73 73 73 72 72 71 71 71 70 70 69 69 69 68 68 68 68 68 68 68 68 69 70 71 71 70 71 71 69 70 72 72 71 69 68 69 69 69 71 70 70 73 70 68 71 69 68 68 66 65 64 62
75 76 76 78 79 80 82 84 86 87 89 90 89 87 87 87 87 87 86 84 82 80 78 76 76 76 75 76 75 75 75 71 71 74 73 72 72 72 72 71 71 71 70 70 69 69 68 67 67 67 67 66 66 66 66 67 67 68 69 70 71 70 71 71 69 69 71 70 70 69 69 69 69 71 72 69 70 75 72 69 71 71 70 68 66 64 61 58
73 75 75 77 79 79 81 83 85 86 87 89 89 87 86 85 86 86 85 84 82 80 78 76 75 74 74 74 74 74 73 70 71 73 71 71 71 70 71 70 70 70 69 69 68 67 66 66 65 65 65 65 65 64 65 66 67 68 68 69 70 70 70 70 69 69 69 69 69 69 69 70 70 72 72 69 71 76 72 70 72 72 70 69 67 65 62 59
72 73 74 77 79 79 80 82 83 85 86 87 88 87 85 84 84 84 84 83 81 80 78 76 75 74 74 73 73 73 71 70 72 71 70 70 69 69 69 68 68 68 67 67 66 66 65 64 64 64 64 64 63 63 64 66 66 66 67 68 69 69 69 69 69 69 69 69 69 68 68 69 70 71 71 71 74 75 71 71 73 72 70 70 67 66 64 63
70 72 74 76 78 79 80 81 82 84 85 86 87 86 85 84 83 83 82 81 80 79 77 76 75 74 73 72 72 71 69 70 71 69 69 69 68 68 67 67 67 66 66 65 64 64 63 62 63 63 63 63 63 62 64 65 65 65 66 67 67 68 68 68 69 69 68 68 68 67 67 67 69 70 70 73 75 73 70 72 74 72 71 71 69 68 66 65
68 71 74 76 78 78 79 80 81 82 84 85 85 86 84 83 82 81 81 80 79 78 76 75 74 73 72 71 71 68 68 70 69 68 68 67 66 66 66 66 66 65 64 63 63 63 62 62 62 62 63 62 61 62 63 64 65 64 64 64 65 66 66 66 68 68 68 68 68 67 67 67 68 68 69 73 73 70 69 71 73 72 70 70 71 69 66 66
67 70 73 76 77 78 78 79 81 81 82 83 84 84 84 82 80 80 80 79 78 77 75 74 73 72 71 70 69 67 68 68 66 66 66 65 65 65 64 65 64 64 63 62 62 61 61 61 61 62 61 60 61 62 61 63 64 63 63 62 63 64 64 65 66 66 66 67 67 66 66 67 67 67 69 71 70 67 66 69 72 71 69 69 69 68 64 63
65 69 73 75 76 76 77 78 80 81 81 82 82 83 82 80 79 78 78 78 77 76 74 73 72 71 70 69 67 66 66 65 64 64 63 63 63 63 63 63 63 63 62 61 61 61 61 61 61 61 60 61 63 61 60 63 63 62 62 62 61 61 62 64 64 63 64 66 66 65 66 68 68 68 69 70 69 65 63 67 71 70 68 67 66 65 61 58
65 69 72 74 75 76 76 77 79 79 80 80 81 81 80 79 77 77 77 77 76 75 73 72 71 70 69 68 66 65 64 63 62 62 62 62 62 62 63 63 63 62 61 61 60 60 60 60 60 60 60 63 63 60 61 64 62 62 62 60 60 60 61 63 61 60 63 65 63 63 65 67 69 70 69 69 68 64 64 68 70 70 69 66 64 62 60 57
64 68 71 73 74 75 76 77 78 78 78 78 79 79 78 77 76 75 75 75 75 74 72 71 70 69 68 66 64 63 62 62 61 61 61 61 61 61 62 62 62 61 61 60 60 60 59 60 60 60 61 63 63 62 64 64 63 62 60 59 59 59 61 62 58 57 62 63 59 62 64 65 70 71 68 67 65 64 65 68 69 69 68 65 61 58 57 55
64 68 70 72 72 73 74 75 76 77 76 76 77 77 76 75 74 74 73 73 73 72 71 70 69 69 66 64 64 63 61 61 60 60 60 60 61 61 61 62 61 60 60 59 59 60 60 60 61 61 62 64 64 64 65 65 63 62 60 60 59 59 60 60 57 55 59 61 58 60 64 65 69 71 69 65 63 63 63 66 68 67 65 64 60 55 54 54
63 67 69 70 70 70 72 74 75 75 74 74 74 74 74 73 73 72 72 71 71 70 70 69 69 67 65 64 64 61 59 60 60 60 60 60 60 61 61 61 60 59 59 59 59 59 60 61 61 62 63 64 65 65 65 64 63 62 61 60 59 59 59 60 61 57 57 59 58 59 62 64 68 68 69 66 62 61 61 63 66 65 64 63 59 55 53 55
63 66 68 68 68 68 70 72 74 74 73 73 72 72 72 71 71 70 70 69 69 69 69 68 67 65 64 63 61 58 58 59 59 60 60 60 60 60 60 59 59 58 58 58 58 59 60 60 61 62 62 63 63 63 63 63 63 62 61 60 60 59 58 61 65 61 57 56 58 60 61 63 66 67 69 67 63 62 61 62 64 65 64 61 59 56 53 53
62 65 66 67 65 65 68 70 72 72 72 71 71 70 70 69 68 68 68 68 68 68 68 66 65 64 62 61 60 58 59 60 60 60 60 60 60 60 59 58 58 57 57 57 58 58 58 58 58 59 59 59 60 61 60 60 61 61 62 60 58 59 60 63 66 64 61 57 57 60 63 63 65 68 70 68 65 63 62 63 63 65 65 60 58 58 53 47
62 64 64 64 62 62 65 68 70 70 71 71 70 69 67 67 66 66 66 67 67 67 66 64 65 63 60 61 60 57 59 61 60 59 60 60 60 59 58 58 57 56 56 56 56 55 55 54 53 54 55 56 57 57 57 57 59 60 59 57 58 59 61 64 67 66 64 61 59 61 64 65 66 68 71 70 68 66 62 63 64 64 64 60 57 57 52 45
61 63 63 61 59 60 63 66 68 69 69 69 68 67 65 65 65 64 66 66 66 66 64 63 64 62 60 60 57 56 60 61 59 58 59 59 59 58 57 56 55 54 54 54 52 51 50 49 49 51 53 54 54 54 53 54 57 57 55 56 58 58 59 62 66 68 65 61 60 61 63 66 66 66 68 67 68 69 63 58 60 61 60 58 56 54 50 47
62 62 61 59 57 58 61 64 66 67 67 67 66 65 64 64 64 64 65 65 64 64 63 63 63 61 60 59 57 59 61 60 58 57 58 59 59 57 55 53 52 53 52 50 47 46 46 46 47 49 51 51 51 51 51 53 55 53 52 55 56 55 57 58 61 65 63 60 58 58 60 62 62 62 64 63 63 67 66 56 53 57 57 55 53 52 49 49
63 63 61 57 56 58 61 62 64 65 65 65 64 64 64 65 64 63 64 63 63 63 62 61 62 61 59 58 58 60 60 59 58 58 58 59 58 55 52 51 52 51 49 46 43 43 44 46 47 47 48 47 48 48 49 51 51 50 50 53 52 52 54 54 57 60 60 59 55 53 57 58 59 60 60 61 60 63 66 58 49 52 55 53 52 52 48 48
64 63 59 56 55 57 60 60 61 62 63 64 63 63 65 65 64 63 62 62 62 62 61 61 61 61 59 58 58 60 60 59 58 58 58 59 56 54 51 51 52 50 47 44 42 43 44 47 47 45 45 45 46 46 47 48 48 48 48 49 48 49 50 50 55 58 58 56 51 52 58 57 57 60 60 62 62 60 64 62 52 50 54 53 53 53 49 48
64 62 58 56 55 55 57 59 59 60 62 62 63 63 64 64 64 62 62 62 62 62 61 61 61 60 58 58 59 60 59 58 58 58 58 58 55 53 51 51 51 48 46 44 43 43 44 48 47 44 44 46 45 46 46 45 46 46 45 45 46 48 49 49 52 58 59 55 51 53 57 57 56 59 61 63 62 59 61 63 57 50 52 54 52 53 50 49
65 63 59 57 56 54 55 57 58 59 59 60 61 61 62 63 63 63 62 62 62 61 61 60 60 59 59 59 59 60 59 59 59 58 58 58 54 52 52 51 49 48 46 44 43 43 44 47 46 44 45 46 46 46 45 44 45 45 44 46 48 48 49 50 53 57 58 56 54 54 55 56 57 59 62 64 62 60 59 61 59 52 51 53 52 52 52 51
65 62 59 58 58 57 56 57 58 57 57 58 59 60 62 63 64 63 62 62 61 60 59 59 59 59 60 60 60 60 59 59 58 57 58 58 54 53 51 49 49 48 46 45 44 44 45 47 45 43 44 46 46 46 45 44 45 45 47 49 48 48 49 52 55 55 55 55 54 55 57 57 57 60 63 64 61 60 60 59 58 54 52 51 51 51 52 52
65 63 61 61 60 58 57 56 56 56 56 57 58 61 63 64 65 63 62 62 60 58 59 59 59 60 60 60 60 60 58 59 59 57 58 57 53 52 50 49 49 48 46 45 44 44 46 47 45 41 41 45 48 48 47 46 45 47 51 51 47 47 51 54 54 53 55 56 53 56 61 60 58 60 63 64 62 59 60 60 57 54 51 49 49 49 50 51
65 65 64 64 61 58 56 55 54 54 55 56 59 63 65 66 65 63 63 61 57 56 59 60 60 60 60 60 61 59 59 61 60 56 56 55 53 51 51 50 48 47 47 46 45 46 47 47 46 40 39 46 50 49 48 46 46 49 51 50 47 49 53 53 53 54 57 56 54 57 63 62 59 58 61 62 59 57 57 58 56 51 49 48 46 45 46 47
63 64 63 62 61 59 56 54 53 54 55 57 60 65 66 66 64 63 63 60 57 57 58 60 59 58 59 60 60 59 60 61 58 55 56 56 54 52 52 50 48 47 48 47 46 49 49 46 46 42 40 47 50 47 46 45 45 48 50 50 49 50 53 53 53 56 57 55 54 58 62 62 58 57 57 55 54 55 52 51 51 46 44 43 39 38 38 39
60 59 58 58 60 60 58 56 55 57 58 60 64 66 65 64 62 62 62 61 60 58 57 59 57 56 58 58 59 59 60 59 56 56 57 55 54 53 52 50 48 47 49 48 48 50 50 46 46 47 45 47 48 45 45 45 46 49 51 52 52 51 52 54 55 57 57 55 55 58 59 59 56 54 54 50 48 48 43 41 41 38 36 34 29 31 32 34
58 57 56 56 58 61 61 61 60 60 61 64 66 66 64 61 60 62 62 62 62 59 58 58 55 55 57 57 58 59 59 58 57 57 57 55 54 54 53 52 49 49 49 50 49 51 52 48 48 49 48 48 48 47 48 48 49 51 52 52 52 53 53 54 56 58 57 54 55 58 56 53 51 50 47 41 39 39 36 33 32 29 27 25 21 24 28 30
59 59 58 56 56 60 64 64 64 64 64 66 66 64 62 60 61 63 63 63 63 60 58 55 54 56 57 58 59 58 59 59 58 58 58 57 56 55 54 53 51 49 50 51 50 51 51 50 49 48 50 51 50 49 51 50 50 51 52 53 53 55 56 55 57 59 56 53 54 55 51 46 44 41 36 29 28 31 26 19 19 20 18 15 17 20 23 25
61 62 61 59 58 61 63 64 66 67 67 67 66 64 62 62 63 63 64 65 63 60 58 56 56 58 58 59 60 58 59 60 59 58 59 58 57 57 56 55 53 51 52 53 51 51 51 50 50 49 51 52 50 51 52 51 50 51 53 54 54 56 57 56 58 58 55 52 51 49 45 41 37 34 29 23 22 23 17 9 10 15 14 13 20 25 24 22
60 61 62 62 60 61 63 64 67 68 68 68 66 64 63 64 65 66 66 65 62 60 60 59 59 60 60 60 60 59 59 59 59 59 59 59 59 58 58 57 55 54 54 54 52 52 52 52 52 52 51 51 51 52 52 51 51 53 54 55 55 56 57 57 57 57 54 50 47 42 38 33 29 26 24 22 21 19 14 11 12 15 18 20 27 31 28 25
58 60 62 62 61 62 63 65 66 65 65 65 64 63 64 66 67 67 66 62 60 62 64 63 64 63 62 62 61 60 59 59 60 60 60 61 60 59 59 58 57 56 56 55 54 54 54 55 56 55 53 52 53 54 52 51 52 54 55 55 55 56 57 57 57 55 50 45 41 37 34 31 27 22 20 20 22 20 16 16 19 20 21 25 30 31 28 29
56 58 59 60 60 60 60 61 61 60 59 58 59 60 62 64 65 63 63 63 64 65 66 66 67 67 65 65 64 63 61 60 61 61 61 62 62 61 60 60 59 57 56 56 56 56 56 56 57 56 54 54 54 54 52 52 53 54 54 55 55 56 56 56 55 52 46 40 36 32 30 31 28 21 17 19 22 22 22 22 22 20 22 26 29 27 24 29
52 53 53 53 53 53 53 53 54 54 53 54 55 57 60 62 60 60 63 65 66 67 68 69 70 69 68 68 67 66 64 63 63 62 63 64 63 62 62 62 60 57 57 57 57 57 56 56 58 56 55 56 56 54 53 53 52 52 53 54 55 56 56 54 52 48 43 36 32 30 28 28 25 22 20 20 21 23 24 20 13 14 20 25 27 25 24 29
46 45 45 46 46 46 47 47 48 49 50 51 53 55 57 58 57 59 62 63 64 67 70 71 69 67 68 70 71 71 69 67 67 66 66 67 65 64 64 64 62 59 59 58 58 57 55 56 59 58 56 57 56 53 52 52 52 51 52 53 54 55 55 52 48 43 37 32 28 28 28 25 22 26 26 22 21 23 23 19 13 14 19 22 24 24 26 31
42 42 43 43 43 43 44 44 45 46 47 49 51 51 52 52 54 57 59 59 61 63 66 67 65 66 70 72 72 72 70 69 69 69 70 69 67 67 67 65 63 60 59 58 57 58 56 57 60 58 55 55 54 52 52 51 51 51 51 53 53 53 53 50 44 38 34 31 26 24 25 23 23 27 28 23 21 23 25 23 19 19 21 22 27 30 32 35
42 42 42 42 41 42 42 42 43 44 45 47 47 47 48 49 51 53 54 55 57 59 61 62 62 65 69 71 71 71 69 68 69 70 71 70 68 67 66 64 63 61 60 58 58 58 57 56 57 55 52 52 52 51 51 50 49 50 51 52 51 50 50 46 39 33 30 28 25 24 22 21 22 24 23 19 19 22 24 26 26 27 28 30 34 36 36 37
40 39 40 40 40 40 40 41 42 43 44 44 44 44 45 47 47 48 50 52 53 54 56 58 59 61 64 67 69 70 68 67 69 70 71 69 66 65 64 64 63 62 60 58 58 58 55 53 54 52 50 51 51 50 50 48 49 50 51 51 49 48 46 42 35 29 26 26 26 27 24 21 21 23 20 16 20 24 25 28 33 35 34 34 36 36 36 38
39 38 39 40 40 40 40 41 42 42 43 42 42 42 43 44 44 45 46 48 49 49 51 53 54 55 58 62 65 66 65 67 69 70 70 66 63 63 63 62 62 60 58 57 56 54 52 51 52 51 50 51 50 49 49 48 49 50 50 48 47 44 41 38 33 26 24 26 26 26 25 22 25 26 24 19 19 23 26 31 37 41 40 37 36 37 38 39
39 40 40 40 40 40 41 42 42 41 41 40 41 42 42 42 43 44 45 46 46 47 48 49 50 52 54 55 57 59 60 63 67 69 69 66 63 62 60 59 58 56 54 54 53 51 50 50 51 50 50 50 49 50 49 49 49 48 46 45 42 39 36 33 29 24 24 25 26 26 24 23 26 28 27 23 21 22 27 34 40 46 45 41 39 40 40 40
39 40 40 40 40 41 42 43 42 41 41 40 41 42 42 42 43 44 45 46 47 48 49 50 51 52 53 53 55 56 56 59 63 66 68 67 65 62 58 56 55 54 54 53 52 51 50 49 49 49 49 49 49 48 46 46 46 43 42 40 36 34 31 27 25 22 22 23 27 30 29 26 27 30 31 32 31 31 34 38 42 46 47 44 43 42 41 41
38 39 40 40 41 41 41 42 42 41 41 41 41 41 42 43 44 45 46 47 49 50 51 52 53 53 54 56 57 57 57 59 61 61 64 67 66 64 60 58 56 55 55 54 51 50 49 49 49 50 50 49 48 45 44 45 45 43 42 39 35 33 29 26 26 22 18 20 25 31 33 31 31 32 35 37 37 37 39 43 45 46 45 45 45 44 42 41
38 38 38 39 39 39 40 40 39 39 40 40 40 41 42 43 45 46 47 48 49 50 52 53 53 54 55 56 57 58 59 59 60 59 60 62 65 65 63 61 59 58 56 54 52 51 51 51 51 51 50 50 49 47 47 47 46 45 43 38 35 34 28 25 26 23 20 22 25 28 33 33 33 37 40 41 39 37 38 42 47 50 48 45 45 45 43 41
37 37 37 37 37 37 37 36 36 36 37 38 39 41 42 43 44 45 46 47 48 50 50 51 51 52 54 55 56 57 57 58 58 57 57 57 60 63 64 64 64 63 60 57 56 55 55 54 54 53 52 52 51 49 47 46 46 46 43 37 34 32 25 20 21 23 26 30 29 31 34 36 36 38 41 44 44 41 39 38 42 49 51 47 45 44 43 42
36 36 36 36 36 35 35 34 34 35 36 37 39 40 41 43 44 44 45 45 46 47 47 47 48 49 51 51 52 52 53 54 55 54 54 54 56 60 63 65 67 66 64 62 61 59 59 58 57 55 55 54 53 50 49 49 49 48 43 39 36 32 25 22 23 25 29 32 33 34 37 39 39 38 41 46 48 45 41 36 35 42 48 48 46 44 43 41
34 34 33 32 32 33 33 33 33 34 36 37 39 40 41 42 42 42 42 43 43 43 43 44 45 45 46 46 47 48 49 51 51 51 52 53 54 56 59 63 66 67 66 65 64 62 61 60 59 58 57 55 53 51 51 52 52 49 43 40 40 36 31 30 31 32 33 34 35 35 37 40 42 42 43 46 49 49 46 40 35 36 41 44 45 45 42 40
32 31 31 30 29 30 31 32 33 34 36 37 38 39 39 39 39 39 39 40 40 40 40 41 42 42 42 43 44 45 46 47 48 49 51 52 53 54 55 57 61 62 62 62 62 61 61 60 59 58 57 55 53 51 51 52 52 49 45 43 43 42 38 36 37 38 37 38 39 39 39 41 43 44 44 45 48 49 49 45 40 36 37 39 41 42 40 38
30 29 28 28 29 30 30 31 33 34 35 35 35 36 36 36 36 36 36 37 37 38 39 40 41 41 42 42 43 43 45 46 47 49 51 52 54 55 55 56 58 59 59 59 59 59 60 60 59 58 57 54 53 52 52 52 52 49 46 45 45 45 44 41 41 42 43 42 42 42 43 43 43 44 44 45 47 48 48 47 43 38 37 37 37 37 37 36
Wind_Direction
251 249 247 245 244 242 241 241 240 240 240 240 240 239 239 240 241 241 242 243 244 244 245 245 245 246 246 247 248 248 249 250 251 251 252 253 253 254 254 255 256 256 256 257 257 258 258 258 259 259 259 259 259 259 259 259 258 258 257 257 257 256 256 256 258 259 260 260 256 254 254 254 256 255 254 256 257 260 260 259 260 260 261 264 264 264 264 265
253 250 247 245 244 243 241 240 240 239 239 239 239 239 239 239 240 240 241 242 243 244 245 245 246 246 247 247 248 248 249 250 251 252 252 253 254 255 255 255 256 256 257 257 258 258 258 258 259 259 260 260 260 260 259 259 259 258 258 257 257 256 256 257 259 258 258 259 258 255 254 255 257 256 256 256 257 258 259 259 259 260 261 263 263 263 264 264
254 251 248 245 244 243 241 240 239 239 239 238 238 238 238 238 239 239 240 242 243 244 244 245 246 246 247 247 248 249 249 250 251 252 253 254 254 255 255 256 256 257 257 257 258 258 258 259 259 259 259 260 260 260 260 259 259 258 258 258 257 257 257 258 258 257 257 259 258 255 254 255 256 257 258 257 256 256 257 259 260 260 259 259 261 262 263 264
254 251 248 245 243 242 241 240 239 238 238 238 238 238 238 238 238 239 239 240 242 243 244 245 246 246 247 248 248 249 249 250 251 253 253 254 254 255 255 256 256 257 257 257 258 258 259 259 259 259 259 260 260 260 259 259 259 259 258 258 258 258 258 258 257 257 257 257 257 256 255 255 257 258 257 256 257 257 257 259 260 259 258 257 258 261 263 264
253 251 248 245 242 240 240 240 239 238 237 238 238 237 237 237 237 238 238 239 241 242 243 245 245 246 247 248 248 249 249 250 251 253 253 253 254 254 255 256 256 257 257 257 258 258 258 258 259 259 259 259 259 259 259 259 259 259 258 258 258 259 258 257 258 258 258 257 257 256 256 256 257 257 256 257 259 259 258 259 259 259 259 259 259 261 263 265
252 249 247 244 241 239 238 238 238 238 237 237 237 237 237 237 237 237 238 239 240 241 242 244 245 246 247 247 248 249 249 250 251 252 252 253 254 254 255 255 256 256 256 257 257 258 258 258 259 259 259 259 259 259 259 259 259 258 258 258 259 258 258 258 258 258 258 258 258 257 256 256 257 256 256 258 260 260 259 259 260 261 260 261 261 261 263 266
251 248 245 242 240 238 236 236 236 237 237 236 236 237 237 237 237 236 237 238 239 240 241 243 244 245 246 247 247 248 249 249 250 251 252 253 253 254 254 255 255 255 256 256 257 257 258 258 259 259 259 259 258 259 259 259 259 259 258 259 259 259 259 259 258 258 258 259 259 258 257 256 256 257 257 258 259 260 259 260 261 261 261 262 262 262 263 263
250 245 242 240 238 236 235 234 234 235 236 236 236 236 237 237 236 236 236 237 238 239 240 241 243 244 245 246 247 248 248 249 249 251 251 252 253 253 254 254 255 255 256 256 257 258 258 258 259 259 259 259 259 260 260 259 259 259 259 259 260 259 259 259 259 258 259 259 259 259 258 257 257 257 257 258 258 259 260 261 261 262 263 263 263 263 263 261
247 242 239 237 236 235 234 233 232 232 234 236 236 235 235 236 236 236 236 236 237 238 239 240 241 243 244 245 246 247 248 248 249 250 251 251 252 252 253 253 254 255 256 257 257 258 258 259 259 259 259 260 259 259 260 259 259 259 260 259 260 260 260 260 260 259 259 259 259 259 258 258 257 257 258 258 257 258 261 261 262 263 263 263 264 264 263 262
244 239 235 234 233 232 232 231 231 231 231 233 235 235 235 235 235 236 236 236 237 237 238 239 241 242 243 244 245 246 247 247 248 249 250 250 250 251 251 252 253 255 256 257 258 258 259 259 259 259 259 259 259 260 260 260 260 260 260 260 260 260 260 260 260 259 258 258 259 258 258 258 258 258 258 258 258 259 260 262 263 263 264 264 263 263 264 264
240 235 232 231 230 230 229 229 229 229 230 231 233 234 234 234 234 235 235 236 236 237 238 239 240 241 242 243 244 245 246 246 247 248 248 249 249 249 250 252 253 254 256 257 258 258 259 259 259 259 259 260 261 260 261 261 261 261 261 261 261 260 260 259 259 258 259 259 258 258 259 258 258 258 258 258 259 260 261 262 263 263 264 265 264 264 264 264
236 231 229 228 228 227 227 227 227 227 229 230 231 233 234 234 234 234 235 235 236 236 238 239 239 240 241 242 243 243 244 245 246 246 247 247 248 249 250 251 253 254 256 257 258 258 258 259 259 260 260 261 260 260 261 263 262 262 261 261 261 260 260 259 258 258 259 259 258 258 259 258 258 258 258 259 259 260 262 263 263 263 264 264 265 265 265 265
232 228 226 225 225 225 225 225 225 226 227 229 230 231 233 233 233 234 234 235 235 236 237 238 239 239 240 241 241 242 243 244 244 244 245 245 247 248 250 251 253 254 256 257 258 258 259 260 260 261 261 260 259 260 262 262 261 262 261 261 261 261 260 259 258 259 259 258 259 259 259 259 258 258 258 259 259 260 261 262 263 263 263 263 264 265 265 264
229 225 223 223 223 223 223 223 224 224 226 228 229 230 231 232 233 233 233 234 235 235 236 237 238 239 239 240 240 240 241 242 242 243 244 245 246 248 250 251 253 255 256 257 258 259 259 260 260 261 261 261 261 260 260 260 260 260 260 260 260 260 259 259 258 259 259 258 259 259 260 260 259 257 258 259 260 260 261 261 262 262 262 263 263 264 264 265
225 222 221 221 221 221 221 222 222 223 224 226 228 229 230 231 232 232 233 233 234 234 235 236 237 237 238 239 239 239 240 240 241 242 243 244 246 248 250 252 254 256 257 258 259 259 259 259 260 260 260 261 261 260 259 259 259 259 259 259 259 259 259 259 258 259 259 259 259 260 260 260 261 258 257 260 261 261 261 261 262 262 263 263 263 264 265 265
222 219 218 218 219 220 220 221 221 222 223 225 227 228 229 230 231 232 232 233 233 234 234 235 236 236 237 238 238 238 239 240 241 242 243 244 246 248 250 253 255 257 258 259 259 260 260 259 259 260 259 259 260 259 259 259 259 258 257 257 257 258 259 260 258 256 259 259 258 260 261 260 261 261 259 258 260 261 261 263 263 263 264 264 263 263 263 262
219 217 216 216 217 218 219 220 220 221 222 224 226 228 228 229 230 231 231 232 232 233 233 234 234 235 236 236 237 238 239 240 241 242 243 244 246 249 251 254 256 258 259 260 260 260 261 261 260 260 259 258 258 258 258 258 257 256 255 255 256 257 259 260 258 254 257 260 259 259 261 262 262 263 262 259 258 259 260 262 264 264 263 263 263 261 259 261
216 215 214 214 215 217 219 219 219 220 221 223 225 226 227 228 229 230 231 231 231 232 232 233 234 234 235 236 237 237 239 240 240 241 242 244 246 249 252 255 257 259 260 260 261 262 262 263 262 260 259 258 257 256 256 256 255 255 254 253 255 257 259 260 259 256 255 258 261 261 261 263 265 265 264 262 261 260 260 261 264 265 263 263 264 262 258 260
214 212 212 212 213 215 218 219 219 219 220 221 223 225 226 227 228 229 230 230 230 231 231 232 233 234 234 235 235 235 237 239 239 241 242 244 247 249 253 255 258 260 261 261 262 263 264 263 262 260 258 256 255 255 255 255 255 255 254 253 255 258 259 259 260 258 256 255 258 262 263 263 266 266 266 264 263 262 263 264 264 265 265 263 263 263 260 256
211 209 209 210 211 214 218 219 219 218 219 221 222 224 225 227 228 228 229 229 230 230 230 231 232 232 232 234 234 235 238 239 240 241 243 245 248 250 253 256 258 260 261 263 264 265 265 263 260 258 256 254 254 254 255 255 254 254 255 256 255 256 259 261 261 260 259 259 259 261 264 264 265 267 268 268 267 264 263 265 265 265 265 264 261 261 258 250
207 205 206 208 209 214 217 218 218 218 219 220 222 223 224 226 227 227 229 229 229 230 230 231 232 232 232 233 234 235 237 239 240 242 244 247 249 251 254 257 259 261 262 264 266 266 265 262 258 255 253 253 253 255 255 254 254 255 256 257 256 257 259 262 264 263 262 262 262 262 263 264 265 267 268 269 269 267 264 262 264 265 264 263 260 258 255 245
203 201 203 205 207 213 216 217 217 217 218 220 221 222 223 225 226 227 228 228 229 230 229 230 232 231 231 232 233 235 237 240 241 242 245 247 249 252 255 258 260 261 264 265 266 266 264 260 257 255 254 254 254 255 254 254 255 255 256 257 258 260 261 262 265 267 265 264 263 264 265 266 266 266 267 267 268 269 267 260 260 263 263 262 260 256 253 245
200 199 201 203 206 212 215 215 217 217 217 219 220 221 222 224 225 226 228 228 229 230 229 230 231 231 231 232 233 236 238 240 241 242 245 248 251 254 256 258 259 261 264 266 265 264 262 259 257 256 256 255 255 254 253 255 256 256 256 258 259 260 261 263 264 265 266 266 267 268 266 266 267 267 268 268 267 268 270 265 259 260 262 261 259 255 251 247
198 197 199 203 207 212 214 214 216 216 217 218 219 221 222 224 224 225 227 228 229 229 230 230 231 232 231 232 233 236 238 240 242 243 246 249 251 254 256 257 258 261 265 265 264 262 260 257 256 257 257 256 254 253 253 255 256 256 256 257 259 259 260 262 265 266 266 267 268 268 266 266 267 268 268 268 267 267 269 269 264 260 261 260 258 256 250 246
197 196 198 202 207 212 214 214 215 216 217 218 219 221 223 224 225 225 226 228 229 229 230 230 231 232 232 233 234 236 239 240 242 243 246 249 252 254 255 256 259 262 265 264 262 261 259 257 256 256 255 254 253 253 253 254 255 255 256 257 258 259 261 263 266 268 269 268 267 265 267 268 268 269 269 268 268 267 268 269 268 262 261 261 258 258 254 247
196 196 197 201 206 210 213 213 214 215 217 218 219 221 224 225 226 225 225 227 228 229 231 231 232 232 233 233 235 238 239 241 243 245 248 250 252 253 254 256 259 261 262 263 262 262 261 259 258 255 253 254 254 254 254 255 256 257 257 257 258 260 263 264 265 266 269 271 269 267 269 270 271 271 271 270 270 270 268 268 270 266 262 261 260 258 257 252
196 195 196 200 203 206 210 211 213 214 216 218 219 221 223 224 225 225 225 227 228 229 231 232 232 233 233 234 236 238 240 243 245 246 247 250 251 252 254 256 257 259 261 262 262 262 262 261 260 258 255 255 256 255 256 255 257 259 258 258 260 263 264 264 264 266 269 270 272 273 272 271 272 273 273 273 273 273 272 270 270 268 264 262 261 259 258 256
196 195 197 201 203 206 209 211 212 214 216 218 219 222 223 223 223 223 224 226 227 229 232 232 233 233 234 235 237 239 241 242 243 244 247 250 251 252 253 253 255 257 260 261 262 261 261 262 263 261 260 258 257 257 257 257 258 260 259 260 262 262 262 263 265 268 270 271 274 276 275 273 272 273 274 275 274 273 273 272 271 271 269 265 263 260 258 257
196 198 201 205 206 207 209 211 212 215 216 218 220 223 224 224 223 223 224 225 225 228 231 232 232 233 234 235 237 238 239 241 243 245 248 250 250 250 251 252 254 257 259 260 260 260 259 261 264 264 262 259 257 257 258 258 259 259 260 262 262 262 263 266 269 271 272 274 276 277 276 275 273 274 274 275 275 274 273 274 274 273 272 267 263 259 256 254
197 201 205 210 211 209 208 209 211 213 215 217 220 223 224 224 224 225 225 225 225 226 230 232 232 233 234 235 236 237 238 241 244 244 245 247 248 249 251 253 255 256 258 258 258 258 258 259 263 263 258 256 257 259 260 259 258 259 262 264 264 266 269 272 273 275 276 276 277 277 276 275 274 274 274 274 275 274 274 274 273 272 271 269 263 256 253 249
196 199 203 209 212 209 207 208 209 211 213 216 220 223 224 225 225 226 227 226 226 226 229 233 232 233 235 235 236 238 239 241 243 243 244 246 248 249 251 252 253 253 255 256 255 257 258 257 258 259 258 257 260 262 261 260 260 261 265 268 270 271 273 276 277 277 278 279 279 278 276 277 277 275 272 271 273 273 273 271 271 270 269 269 264 254 251 248
195 195 198 204 209 209 208 209 209 211 214 218 221 223 224 224 226 227 227 227 227 226 228 233 234 234 235 236 236 237 239 241 241 242 244 245 246 248 250 251 252 252 254 255 255 256 258 256 255 258 260 260 260 261 261 261 263 265 269 272 274 275 276 277 279 279 280 281 282 280 278 279 278 275 272 271 270 267 265 267 269 269 266 266 260 247 244 244
197 197 198 201 205 208 210 211 212 213 216 220 222 223 224 224 226 228 228 227 227 226 228 232 234 235 235 236 237 237 238 239 240 242 244 245 246 247 249 251 252 253 254 254 255 256 258 258 256 257 258 258 259 261 262 264 266 269 272 273 275 277 278 279 280 281 283 284 284 283 281 278 273 271 270 266 262 260 258 261 269 271 273 275 263 242 234 235
200 201 203 203 205 208 210 213 215 216 219 222 224 224 224 224 226 227 228 228 227 226 228 230 233 235 236 236 237 238 239 240 241 243 245 246 247 247 249 250 251 252 252 253 254 256 257 258 257 255 255 258 260 262 263 266 268 270 272 273 275 277 278 280 281 283 285 286 285 283 280 276 270 268 263 250 250 257 250 226 245 266 269 266 258 244 232 226
201 204 206 208 209 211 212 214 218 220 221 224 225 226 226 226 226 227 228 229 229 229 229 230 232 235 236 237 238 239 240 242 243 243 244 246 246 248 249 250 251 251 252 253 254 254 255 256 256 256 257 259 261 262 264 268 270 271 272 274 276 277 278 280 282 285 287 286 285 279 273 271 268 262 254 241 236 243 238 208 210 236 241 242 246 243 236 226
202 205 208 210 212 214 215 217 221 223 224 226 227 227 227 228 228 228 229 229 230 231 231 230 232 234 236 237 239 240 241 242 243 243 244 246 247 248 249 250 251 251 252 253 253 253 254 254 256 257 258 259 261 264 266 269 270 272 274 275 276 278 279 282 285 287 287 285 280 273 266 262 256 250 245 234 225 225 226 220 218 220 223 233 240 237 237 236
204 207 209 212 214 217 219 221 224 227 228 229 229 230 230 230 230 230 230 228 228 230 231 231 232 233 235 237 239 240 240 242 244 245 245 247 248 248 249 250 250 251 252 253 253 253 253 255 257 259 261 262 263 265 267 269 271 273 274 275 277 279 281 285 287 288 287 281 272 268 263 257 253 248 241 229 221 217 214 220 227 222 216 230 238 230 231 243
206 209 212 215 217 220 222 224 227 229 230 231 231 231 231 231 231 230 230 229 228 229 231 232 232 233 235 237 238 239 239 240 242 244 245 246 247 248 249 250 251 251 252 252 253 254 255 258 260 262 263 264 264 266 269 270 271 272 273 275 279 281 284 286 288 288 284 275 266 262 258 253 246 236 232 225 213 208 206 206 216 223 224 237 240 224 221 237
207 210 213 216 218 220 221 223 225 226 228 229 229 230 230 230 230 230 231 231 230 230 231 232 233 234 235 237 238 238 238 239 241 242 244 245 246 247 248 249 251 251 252 253 255 257 257 259 261 262 263 265 266 268 269 270 271 271 273 277 280 283 286 288 287 284 278 270 264 258 252 250 239 224 224 223 209 204 203 195 194 219 235 248 249 236 230 236
205 208 211 213 215 217 219 221 223 224 226 228 229 230 230 230 230 231 232 232 232 232 233 234 235 234 235 237 238 239 239 240 241 242 244 246 246 248 249 251 253 253 254 255 256 256 256 257 259 261 262 264 266 267 268 269 271 273 275 278 281 284 287 287 283 277 273 269 265 258 247 242 235 223 219 222 219 214 209 202 200 210 221 235 244 243 240 238
204 206 210 212 214 216 218 220 222 223 225 227 228 229 230 230 230 231 232 232 233 233 234 235 234 234 235 237 239 240 240 239 241 242 243 244 245 247 249 251 252 253 253 253 254 254 254 256 258 260 262 263 264 266 267 269 272 274 277 280 283 285 286 286 278 268 266 264 257 256 247 231 228 224 215 221 233 228 218 212 209 209 214 224 233 237 239 239
205 208 211 213 214 216 218 220 221 223 224 226 226 227 228 229 229 230 231 232 232 233 233 234 234 234 236 237 238 239 239 239 240 242 243 244 245 247 249 250 251 252 253 253 253 254 254 255 258 259 259 260 262 264 267 269 272 275 278 281 284 284 284 282 273 262 259 254 247 251 249 226 218 218 206 211 231 231 222 215 213 215 217 223 230 233 236 240
205 208 212 214 214 216 218 220 221 222 224 224 225 225 226 227 227 228 229 230 230 231 231 233 233 234 235 236 237 238 238 238 238 240 242 243 244 246 247 249 250 251 252 252 253 254 254 254 255 257 257 259 261 263 266 269 272 275 279 281 282 282 279 273 268 261 256 249 239 241 241 222 213 211 200 200 223 233 232 225 223 224 221 222 229 232 232 237
206 209 213 214 215 217 219 220 221 222 223 223 224 225 226 226 226 227 228 229 230 230 231 232 233 233 234 236 237 238 237 237 237 238 240 240 241 242 245 247 249 250 250 251 251 252 251 251 253 255 256 258 261 264 267 270 272 275 278 279 280 278 273 268 265 259 251 244 230 224 224 216 211 208 202 205 216 226 233 232 230 229 225 222 228 232 233 237
209 212 214 215 216 218 220 221 221 222 223 224 225 227 227 228 229 229 230 231 231 232 233 234 234 235 236 237 237 238 237 236 236 236 237 237 237 239 242 244 246 248 248 248 249 249 250 251 253 254 256 259 262 265 267 268 268 270 273 276 277 271 264 263 262 253 245 239 226 217 215 213 211 205 203 213 218 217 223 228 228 229 226 224 227 231 234 237
212 216 217 218 219 221 224 225 224 224 225 226 228 229 230 231 231 232 233 234 234 235 236 237 237 237 238 238 238 238 237 236 236 236 235 235 235 236 238 240 242 244 246 247 247 248 249 250 252 254 257 259 260 262 263 264 266 268 270 273 273 264 254 251 252 247 240 242 237 225 217 217 218 211 209 217 221 219 223 226 225 226 226 227 231 234 235 237
214 218 220 222 222 223 225 226 226 226 228 229 230 231 232 233 234 234 235 236 237 238 239 239 239 239 238 238 237 237 236 236 237 237 236 235 234 234 236 239 240 240 242 244 245 246 247 249 250 252 254 256 258 259 262 264 265 266 267 269 268 262 252 247 246 237 225 233 242 235 224 223 228 223 217 221 225 224 225 228 227 225 227 231 234 236 238 239
215 217 220 223 224 225 225 226 226 227 228 230 232 234 235 236 237 238 239 240 241 241 241 240 239 238 237 236 236 235 236 236 236 237 237 236 235 234 235 237 239 239 240 242 243 245 247 249 250 252 254 255 257 258 260 260 260 262 264 265 263 256 247 242 238 226 219 222 229 232 227 226 232 232 226 225 227 227 227 231 231 228 228 231 235 238 240 240
215 216 218 220 222 224 224 225 227 228 230 232 235 237 239 240 241 242 242 242 242 241 240 239 238 236 236 235 235 234 235 235 235 236 236 235 234 233 233 235 238 239 240 241 244 246 249 250 251 252 253 254 255 256 256 255 257 261 263 261 255 244 231 230 232 228 227 227 229 232 230 227 230 235 234 231 230 229 229 234 236 233 231 232 235 240 243 241
216 216 218 219 220 222 224 226 229 232 234 236 238 240 242 242 243 243 242 240 239 238 237 236 236 235 234 233 232 232 233 233 233 233 233 234 234 233 233 235 238 240 241 242 244 246 248 249 251 251 252 252 252 253 253 254 258 261 261 258 250 238 226 227 232 233 233 235 236 237 237 233 231 234 237 237 235 233 233 236 240 240 237 235 236 240 242 241
215 216 218 220 222 225 228 230 234 237 238 240 241 242 242 242 241 241 239 238 237 235 234 233 233 233 232 232 231 230 231 231 230 231 231 233 234 234 233 235 238 240 240 241 243 244 245 247 248 248 248 248 248 249 250 252 256 259 261 258 251 239 227 224 229 232 232 234 238 239 240 240 237 236 238 240 239 238 238 238 240 243 242 237 236 239 238 237
214 217 220 223 227 230 233 235 238 239 240 240 240 240 239 238 237 237 236 236 236 234 233 232 231 231 231 231 230 229 229 229 229 229 230 231 233 234 233 234 237 239 240 240 241 242 243 244 244 245 245 245 246 248 248 250 252 254 257 256 249 238 228 222 225 230 231 231 234 236 237 238 237 236 239 242 242 242 242 239 237 241 243 238 235 236 234 233